(2021 AZ5) |
Classification: Apollo [NEO] SPK-ID: 54105521 |
[ hide orbit diagram ]
For accurate long-term ephemerides, please instead use our Horizons system.This orbit viewer was implemented using two-body methods, and hence should not be used for determining accurate long-term trajectories (over several years or decades) or planetary encounter circumstances.
Orbital Elements at Epoch 2459200.5 (2020-Dec-17.0) TDB
Reference: JPL 7 (heliocentric ecliptic J2000)
Element | Value | Uncertainty (1-sigma) | Units |
e | .5283768562116457 | 0.00016213 | |
a | 2.083623154869852 | 0.00071497 | au |
q | .9826849027699289 | 6.3274e-07 | au |
i | 6.376784738394547 | 0.0014894 | deg |
node | 114.6131690366194 | 7.9836e-06 | deg |
peri | 9.227566915942758 | 0.00066342 | deg |
M | 348.1705232497345 | 0.0060571 | deg |
tp | 2459236.598588738889 (2021-Jan-22.09858874) | 0.00013928 | TDB |
period | 1098.568619758128 3.01 | 0.56544 0.001548 | d yr |
n | .3276991473498135 | 0.00016867 | deg/d |
Q | 3.184561406969776 | 0.0010927 | au |
|
| | Orbit Determination Parameters
Additional Information
|
[ show covariance matrix ]
Physical Parameter Table
Parameter |
Symbol |
Value |
Units |
Sigma |
Reference |
Notes |
absolute magnitude |
H |
28.07 |
|
.51876 |
E2021D54 |
autocmod 2.8 |
|
[ show close-approach data ]
|